Date String (YYYY-MM-DD hh:mm:ss) UTC,Instrument flags,absolute air pressure of the measurement (hPa),sample flow rate (lpm),inlet stack bypass flow (lpm),air temperature of the measurement (°C),ambient temperature measured by the external sensor (°C),aerosol sample conditioner tube jacket temperature (°C),OPC LED temperature (°C),internal box temperature (°C),relative humidity of the measurement (%),span deviation,mass concentration of particles derived from Lorenz-Mie calculation of OPC scattering (μg/m³),mass concentration of particles derived from Lorenz-Mie calculation of OPC scattering (μg/m³),mass concentration of particles derived from Lorenz-Mie calculation of OPC scattering (μg/m³)
DateTimeUTC,F1_M11,P_M11,Q1_M11,Q2_M11,T1_M11,T2_M11,T3_M11,T4_M11,T5_M11,U1_M11,ZSPAN_M11,X2_M11,X0_M11,X1_M11
2024-06-01 21:00:00,SystemResetWarning,0826.8,5.00,000.00,029.1,028.0,000.0,037.5,030.8,014.0,0000.0,0003.24,0008.93,0002.18
2024-06-01 21:01:00,SystemResetWarning,0826.8,4.99,000.00,029.2,028.3,000.0,037.5,030.9,014.1,0000.0,0003.26,0008.36,0002.18
2024-06-01 21:02:00,SystemResetWarning,0826.8,4.99,000.00,029.3,028.5,000.0,037.5,031.0,013.8,0000.0,0003.29,0008.53,0002.19
2024-06-01 21:03:00,SystemResetWarning,0826.8,5.01,000.00,029.4,028.7,000.0,037.5,031.2,014.2,0000.0,0003.28,0008.42,0002.17
2024-06-01 21:04:00,SystemResetWarning,0826.8,5.01,000.00,029.4,028.9,000.0,037.5,031.2,014.3,0000.0,0003.27,0008.14,0002.18
2024-06-01 21:05:00,SystemResetWarning,0826.8,5.00,000.00,029.5,029.0,000.0,037.6,031.3,013.4,0000.0,0003.22,0008.86,0002.18
2024-06-01 21:06:00,SystemResetWarning,0826.8,5.00,000.00,029.6,029.1,000.0,037.6,031.4,014.3,0000.0,0003.20,0009.12,0002.19
2024-06-01 21:07:00,SystemResetWarning,0826.8,5.00,000.00,029.7,029.2,000.0,037.7,031.5,016.2,0000.0,0003.19,0009.36,0002.21
2024-06-01 21:08:00,SystemResetWarning,0826.8,5.00,000.00,029.7,029.3,000.0,037.7,031.6,016.5,0000.0,0003.21,0009.33,0002.26
2024-06-01 21:09:00,SystemResetWarning,0826.7,4.98,000.00,029.7,028.5,000.0,037.8,031.1,016.7,0000.0,0003.27,0010.59,0002.29
2024-06-01 21:10:00,SystemResetWarning,0826.6,5.01,000.00,029.4,026.7,000.0,037.9,030.3,016.4,0000.0,0003.33,0012.29,0002.33
2024-06-01 21:11:00,SystemResetWarning,0826.6,5.01,000.00,029.2,026.9,000.0,037.8,030.3,017.2,0000.0,0003.36,0012.19,0002.37
2024-06-01 21:12:00,SystemResetWarning,0826.6,4.99,000.00,029.2,027.2,000.0,037.7,030.5,017.5,0000.0,0003.41,0012.73,0002.44
2024-06-01 21:13:00,SystemResetWarning,0826.6,5.00,000.00,029.2,027.6,000.0,037.7,030.7,017.5,0000.0,0003.46,0012.98,0002.51
2024-06-01 21:14:00,SystemResetWarning,0826.6,5.01,000.00,029.3,027.9,000.0,037.7,030.9,017.2,0000.0,0003.49,0013.55,0002.60
2024-06-01 21:15:00,SystemResetWarning,0826.6,5.00,000.00,029.3,028.2,000.0,037.6,031.0,016.5,0000.0,0003.57,0013.89,0002.67
2024-06-01 21:16:00,SystemResetWarning,0826.6,4.99,000.00,029.4,028.4,000.0,037.7,031.1,016.5,0000.0,0003.63,0013.30,0002.75
2024-06-01 21:17:00,SystemResetWarning,0826.6,5.00,000.00,029.4,028.6,000.0,037.7,031.2,016.9,0000.0,0003.70,0014.05,0002.83
2024-06-01 21:18:00,SystemResetWarning,0826.6,5.00,000.00,029.5,028.8,000.0,037.7,031.3,017.1,0000.0,0003.81,0014.96,0002.91
2024-06-01 21:19:00,SystemResetWarning,0826.6,4.99,000.00,029.6,028.9,000.0,037.7,031.4,017.2,0000.0,0003.88,0015.68,0002.96
2024-06-01 21:20:00,SystemResetWarning,0826.6,4.99,000.00,029.6,029.1,000.0,037.8,031.4,017.2,0000.0,0003.93,0015.64,0003.03
2024-06-01 21:21:00,SystemResetWarning,0826.6,5.01,000.00,029.7,029.2,000.0,037.8,031.5,016.4,0000.0,0003.97,0014.90,0003.09
2024-06-01 21:22:00,SystemResetWarning,0826.5,5.01,000.00,029.8,029.3,000.0,037.8,031.6,017.1,0000.0,0004.04,0015.33,0003.16
2024-06-01 21:23:00,SystemResetWarning,0826.5,4.98,000.00,029.7,028.1,000.0,037.9,030.9,017.0,0000.0,0004.10,0017.59,0003.20
2024-06-01 21:24:00,SystemResetWarning,0826.4,5.02,000.00,029.3,026.5,000.0,037.9,030.2,016.8,0000.0,0004.14,0018.86,0003.24
2024-06-01 21:25:00,SystemResetWarning,0826.4,5.01,000.00,029.2,026.7,000.0,037.9,030.2,016.4,0000.0,0004.16,0018.65,0003.26
2024-06-01 21:26:00,SystemResetWarning,0826.5,4.99,000.00,029.2,027.1,000.0,037.8,030.4,016.8,0000.0,0004.16,0019.14,0003.28
2024-06-01 21:27:00,SystemResetWarning,0826.6,5.00,000.00,029.2,027.5,000.0,037.7,030.7,016.8,0000.0,0004.17,0018.80,0003.29
2024-06-01 21:28:00,SystemResetWarning,0826.6,5.00,000.00,029.3,027.8,000.0,037.7,030.8,016.7,0000.0,0004.25,0019.14,0003.30
2024-06-01 21:29:00,SystemResetWarning,0826.6,5.01,000.00,029.3,028.1,000.0,037.7,031.0,016.3,0000.0,0004.21,0018.71,0003.31
2024-06-01 21:30:00,SystemResetWarning,0826.8,5.00,000.00,029.4,028.4,000.0,037.7,031.1,016.6,0000.0,0004.19,0018.14,0003.32
2024-06-01 21:31:00,SystemResetWarning,0826.8,5.00,000.00,029.4,028.6,000.0,037.7,031.2,016.3,0000.0,0004.19,0017.74,0003.32
2024-06-01 21:32:00,SystemResetWarning,0827.0,5.00,000.00,029.5,028.7,000.0,037.7,031.3,016.4,0000.0,0004.15,0017.28,0003.31
2024-06-01 21:33:00,SystemResetWarning,0827.2,5.00,000.00,029.6,028.9,000.0,037.7,031.3,016.2,0000.0,0004.12,0016.72,0003.28
2024-06-01 21:34:00,SystemResetWarning,0827.2,5.00,000.00,029.6,029.0,000.0,037.8,031.4,016.3,0000.0,0004.10,0014.40,0003.26
2024-06-01 21:35:00,SystemResetWarning,0827.2,5.00,000.00,029.7,029.2,000.0,037.8,031.5,016.9,0000.0,0004.07,0013.33,0003.25
2024-06-01 21:36:00,SystemResetWarning,0827.2,5.00,000.00,029.7,029.3,000.0,037.8,031.5,016.6,0000.0,0004.03,0013.08,0003.21
2024-06-01 21:37:00,SystemResetWarning,0827.2,4.99,000.00,029.8,029.4,000.0,037.9,031.6,014.0,0000.0,0004.00,0011.88,0003.18
2024-06-01 21:38:00,SystemResetWarning,0827.3,5.00,000.00,029.8,029.1,000.0,037.9,031.4,014.5,0000.0,0003.94,0011.78,0003.14
2024-06-01 21:39:00,SystemResetWarning,0827.1,5.00,000.00,029.6,026.9,000.0,038.0,030.5,015.5,0000.0,0003.85,0011.21,0003.09
2024-06-01 21:40:00,SystemResetWarning,0827.2,5.02,000.00,029.3,026.6,000.0,038.0,030.2,016.1,0000.0,0003.84,0010.26,0003.07
2024-06-01 21:41:00,SystemResetWarning,0827.1,5.00,000.00,029.2,026.9,000.0,037.9,030.4,015.0,0000.0,0003.82,0010.18,0003.04
2024-06-01 21:42:00,SystemResetWarning,0827.2,5.00,000.00,029.2,027.3,000.0,037.8,030.6,014.1,0000.0,0003.81,0010.99,0003.00
2024-06-01 21:43:00,SystemResetWarning,0827.2,5.00,000.00,029.3,027.7,000.0,037.8,030.8,014.0,0000.0,0003.74,0011.19,0002.93
2024-06-01 21:44:00,SystemResetWarning,0827.2,5.00,000.00,029.3,028.0,000.0,037.7,030.9,013.4,0000.0,0003.67,0011.80,0002.86
2024-06-01 21:45:00,SystemResetWarning,0827.3,5.00,000.00,029.4,028.3,000.0,037.7,031.0,013.4,0000.0,0003.59,0011.68,0002.76
2024-06-01 21:46:00,SystemResetWarning,0827.2,4.99,000.00,029.4,028.5,000.0,037.7,031.2,013.2,0000.0,0003.49,0010.81,0002.68
2024-06-01 21:47:00,SystemResetWarning,0827.2,5.00,000.00,029.5,028.7,000.0,037.7,031.2,013.2,0000.0,0003.44,0010.16,0002.60
2024-06-01 21:48:00,SystemResetWarning,0827.1,5.00,000.00,029.6,028.8,000.0,037.7,031.3,013.6,0000.0,0003.43,0010.16,0002.56
2024-06-01 21:49:00,SystemResetWarning,0827.2,4.99,000.00,029.6,029.0,000.0,037.8,031.4,013.0,0000.0,0003.43,0010.49,0002.55
2024-06-01 21:50:00,SystemResetWarning,0827.1,5.00,000.00,029.7,029.1,000.0,037.8,031.4,013.2,0000.0,0003.41,0011.01,0002.56
2024-06-01 21:51:00,SystemResetWarning,0827.1,5.01,000.00,029.7,029.2,000.0,037.8,031.5,013.3,0000.0,0003.35,0011.14,0002.50
2024-06-01 21:52:00,SystemResetWarning,0827.0,5.00,000.00,029.8,029.3,000.0,037.9,031.6,013.1,0000.0,0003.29,0011.29,0002.44
2024-06-01 21:53:00,SystemResetWarning,0827.0,4.99,000.00,029.9,029.4,000.0,037.9,031.7,013.4,0000.0,0003.22,0010.93,0002.40
2024-06-01 21:54:00,SystemResetWarning,0827.0,5.00,000.00,029.9,029.2,000.0,037.9,031.5,013.3,0000.0,0003.22,0010.09,0002.39
2024-06-01 21:55:00,SystemResetWarning,0826.9,5.00,000.00,029.6,027.1,000.0,038.0,030.6,013.2,0000.0,0003.26,0009.88,0002.38
2024-06-01 21:56:00,SystemResetWarning,0826.9,5.02,000.00,029.3,026.7,000.0,038.0,030.3,013.6,0000.0,0003.29,0009.81,0002.40
2024-06-01 21:57:00,SystemResetWarning,0827.0,4.99,000.00,029.3,027.1,000.0,037.9,030.4,013.6,0000.0,0003.33,0010.36,0002.42
2024-06-01 21:58:00,SystemResetWarning,0827.0,4.99,000.00,029.3,027.4,000.0,037.8,030.7,013.9,0000.0,0003.34,0010.46,0002.45
2024-06-01 21:59:00,SystemResetWarning,0827.0,5.00,000.00,029.3,027.8,000.0,037.8,030.9,014.2,0000.0,0003.36,0010.42,0002.50
